EW5171 Weather Reports


time (UTC)temp
F
wind
direction
speed
knots
gust
knots
rain 1hr
in
rain 24hr
in
rain mn
in
humidity
%
barometer
mb
20260904195546 56 159 1.7 9.6 0.00 0.03 0.02 95 999.7
20260904195049 56 325 3.5 9.6 0.00 0.03 0.02 95 999.6
20260904194628 56 209 2.6 7.8 0.00 0.03 0.02 95 999.5
20260904194045 56 342 1.7 8.7 0.01 0.03 0.02 95 999.5
20260904193545 56 294 1.7 9.6 0.01 0.03 0.02 95 999.5
20260904193045 56 259 1.7 11.3 0.01 0.03 0.02 95 999.5
20260904192544 56 355 2.6 11.3 0.01 0.03 0.02 95 999.6
20260904192045 56 290 1.7 7.8 0.01 0.03 0.02 95 999.5
20260904191544 57 202 1.7 8.7 0.01 0.03 0.02 95 999.5
20260904191044 57 298 2.6 8.7 0.01 0.03 0.02 96 999.5
20260904190544 57 302 0.9 7.8 0.01 0.03 0.02 96 999.4
20260904190047 57 332 0.9 5.2 0.01 0.03 0.02 96 999.4
20260904185543 57 292 1.7 4.3 0.01 0.03 0.02 95 999.3
20260904185043 57 298 0.0 2.6 0.01 0.03 0.02 95 999.2
20260904184551 57 213 0.0 3.5 0.01 0.03 0.02 95 999.1
20260904184043 57 163 0.9 3.5 0.00 0.02 0.02 95 999.1
20260904183544 57 209 0.0 2.6 0.00 0.02 0.02 95 999.0
20260904183043 57 257 0.0 3.5 0.00 0.02 0.02 95 999.0
20260904182541 57 190 0.9 4.3 0.00 0.02 0.02 95 999.0
20260904182041 57 265 0.9 4.3 0.00 0.02 0.02 94 999.0
20260904181550 58 315 0.9 5.2 0.00 0.02 0.02 94 999.1
20260904181042 58 246 0.9 5.2 0.00 0.02 0.02 94 999.1
20260904180541 58 248 0.9 4.3 0.00 0.02 0.02 94 999.0
20260904180043 58 241 0.9 4.3 0.00 0.02 0.02 94 999.1
20260904175544 58 349 0.0 4.3 0.00 0.02 0.02 93 999.0
20260904175041 58 175 0.9 9.6 0.00 0.02 0.02 93 999.1
20260904174541 59 235 2.6 9.6 0.00 0.02 0.02 92 999.1
20260904174041 59 198 0.9 7.8 0.00 0.02 0.02 92 999.1
20260904173540 59 279 0.9 7.0 0.00 0.02 0.02 91 999.1
20260904173058 59 184 0.0 5.2 0.00 0.02 0.02 90 999.0
20260904172539 59 190 1.7 7.0 0.00 0.02 0.02 90 998.9
20260904172040 60 284 1.7 7.8 0.00 0.02 0.02 89 998.8
20260904171542 60 196 0.0 8.7 0.00 0.02 0.02 88 998.6
20260904171038 60 285 0.9 6.1 0.00 0.02 0.02 88 998.6
20260904170538 60 300 0.9 11.3 0.00 0.02 0.02 88 998.6
20260904170041 61 214 1.7 5.2 0.00 0.02 0.02 88 998.6
20260904165541 61 263 0.0 2.6 0.00 0.02 0.02 88 998.5
20260904165039 61 254 0.0 4.3 0.00 0.02 0.02 88 998.5
20260904164538 62 273 0.9 4.3 0.00 0.02 0.02 88 998.5
20260904164037 62 38 0.9 5.2 0.00 0.02 0.02 89 998.6
20260904163537 62 250 0.0 1.7 0.00 0.02 0.02 89 998.6
20260904163038 63 315 0.0 1.7 0.00 0.02 0.02 89 998.6
20260904162537 62 295 0.0 1.7 0.00 0.02 0.02 89 998.6
20260904162036 62 295 0.0 2.6 0.00 0.02 0.02 88 998.6
20260904161544 62 295 0.0 3.5 0.00 0.02 0.02 88 998.5
20260904161036 62 162 0.9 3.5 0.00 0.02 0.02 88 998.7
20260904160539 62 255 0.0 1.7 0.00 0.02 0.02 88 998.7
20260904160039 62 265 0.0 2.6 0.00 0.02 0.02 88 998.7
20260904155535 62 265 0.0 5.2 0.00 0.02 0.02 87 998.7
20260904155037 62 279 0.0 5.2 0.00 0.02 0.02 87 998.7
20260904154535 62 290 0.9 3.5 0.00 0.02 0.02 87 998.7
20260904154035 63 284 0.9 3.5 0.00 0.02 0.02 88 998.6
20260904153536 63 288 0.0 6.1 0.00 0.02 0.02 88 998.6
20260904153038 63 292 1.7 6.1 0.00 0.02 0.02 87 998.7
20260904152535 63 178 1.7 7.0 0.00 0.02 0.02 88 998.7
20260904152032 63 279 1.7 7.0 0.00 0.02 0.02 88 998.7
20260904151541 63 277 0.9 5.2 0.00 0.02 0.02 90 998.8
20260904151033 62 186 0.9 3.5 0.01 0.02 0.02 89 998.7
20260904150530 62 282 0.9 4.3 0.01 0.02 0.02 91 998.7
20260904150034 62 292 0.9 4.3 0.01 0.02 0.02 91 998.7
20260904145529 62 309 0.9 5.2 0.01 0.02 0.02 91 998.7
20260904145028 62 286 0.9 5.2 0.01 0.02 0.02 92 998.9
20260904144527 61 297 0.9 3.5 0.01 0.02 0.02 92 998.8
20260904144028 61 261 1.7 8.7 0.01 0.02 0.02 92 998.8
20260904143527 62 275 0.9 8.7 0.01 0.02 0.02 93 998.8
20260904143027 61 265 0.9 6.1 0.01 0.02 0.02 93 998.9
20260904142528 61 341 0.9 6.1 0.01 0.02 0.02 94 998.8
20260904142025 61 281 0.9 6.1 0.01 0.02 0.02 95 998.8
20260904141525 61 258 0.9 4.3 0.00 0.02 0.01 96 998.8
20260904141026 61 299 1.7 4.3 0.00 0.02 0.01 95 998.8
20260904140522 60 242 1.7 5.2 0.00 0.02 0.01 95 999.0
20260904140021 60 300 0.0 5.2 0.00 0.02 0.01 95 999.1
20260904135522 60 232 0.9 5.2 0.00 0.02 0.01 95 999.2
20260904135022 60 202 0.9 6.1 0.00 0.02 0.01 96 999.2
20260904134521 60 206 0.9 7.8 0.00 0.02 0.01 96 999.2
20260904134019 60 310 2.6 7.8 0.00 0.02 0.01 96 999.3
20260904133519 60 182 0.9 6.1 0.00 0.02 0.01 96 999.3
20260904133023 60 319 1.7 6.1 0.00 0.02 0.01 96 999.3
20260904132518 60 270 1.7 4.3 0.00 0.02 0.01 96 999.3
20260904132016 60 201 0.9 4.3 0.00 0.02 0.01 96 999.3
20260904131515 59 269 0.9 6.1 0.00 0.02 0.01 96 999.2
20260904131015 59 265 0.9 4.3 0.00 0.02 0.01 96 999.2
20260904130516 59 270 0.9 4.3 0.00 0.02 0.01 96 999.4
20260904130015 59 234 0.9 5.2 0.00 0.02 0.01 95 999.5
20260904125515 59 190 1.7 5.2 0.00 0.02 0.01 95 999.5
20260904125015 59 251 0.9 7.0 0.00 0.02 0.01 96 999.5
20260904124514 60 291 1.7 7.0 0.00 0.02 0.01 96 999.4
20260904124013 60 311 0.9 7.8 0.00 0.02 0.01 96 999.2
20260904123517 60 236 0.9 7.0 0.00 0.02 0.01 96 999.2
20260904123014 60 269 1.7 7.8 0.00 0.02 0.01 96 999.3
20260904122515 60 290 2.6 7.8 0.00 0.02 0.01 96 999.3
20260904122015 60 238 0.9 5.2 0.00 0.02 0.01 96 999.2
20260904121511 60 241 0.9 3.5 0.00 0.02 0.01 96 999.3
20260904121013 60 221 0.9 4.3 0.00 0.02 0.01 96 999.4
20260904120509 59 228 0.9 5.2 0.00 0.02 0.01 95 999.4
20260904120012 60 195 1.7 5.2 0.00 0.02 0.01 95 999.4
20260904115508 60 225 0.9 4.3 0.00 0.02 0.01 95 999.5
20260904115007 60 289 0.9 6.1 0.00 0.02 0.01 95 999.6
20260904114507 60 183 1.7 6.1 0.00 0.02 0.01 95 999.7
20260904114007 60 166 0.9 4.3 0.00 0.02 0.01 95 999.7
20260904113506 60 239 0.9 5.2 0.00 0.02 0.01 95 999.6
20260904113019 60 181 1.7 5.2 0.00 0.02 0.01 95 999.8
20260904112508 60 236 0.9 3.5 0.00 0.02 0.01 95 999.8
20260904112004 60 294 0.0 3.5 0.00 0.02 0.01 95 999.9
20260904111511 60 199 0.9 3.5 0.00 0.02 0.01 95 1000.0
20260904111006 60 195 0.0 3.5 0.00 0.02 0.01 95 1000.1
20260904110503 60 184 0.9 4.3 0.00 0.02 0.01 95 1000.1
20260904110003 60 183 0.9 3.5 0.00 0.02 0.01 95 1000.1
20260904105502 60 177 0.9 2.6 0.00 0.02 0.01 95 1000.2
20260904105002 60 238 0.9 3.5 0.00 0.02 0.01 95 1000.2
20260904104501 60 139 0.0 3.5 0.00 0.02 0.01 94 1000.2
20260904104003 60 181 0.9 5.2 0.00 0.02 0.01 94 1000.3
20260904103500 60 164 0.9 5.2 0.00 0.02 0.01 94 1000.2
20260904103106 60 159 0.0 3.5 0.00 0.02 0.01 94 1000.4
20260904102559 60 304 0.9 5.2 0.00 0.02 0.01 94 1000.4
20260904102059 60 180 0.9 6.1 0.00 0.02 0.01 94 1000.4
20260904101559 60 221 0.9 6.1 0.00 0.02 0.01 94 1000.4
20260904101057 60 215 0.9 4.3 0.00 0.02 0.01 94 1000.5
20260904100556 60 182 0.9 5.2 0.00 0.02 0.01 94 1000.5
20260904100103 60 315 1.7 6.1 0.00 0.02 0.01 94 1000.7
20260904095555 60 221 0.9 5.2 0.00 0.02 0.01 94 1000.7
20260904095054 60 198 0.9 5.2 0.00 0.02 0.01 94 1000.7
20260904094553 59 188 1.7 6.1 0.00 0.02 0.01 94 1000.7
20260904094051 59 188 1.7 6.1 0.00 0.02 0.01 94 1000.7
20260904093553 59 141 0.0 4.3 0.00 0.02 0.01 94 1000.9
20260904093054 59 136 0.0 3.5 0.00 0.02 0.01 94 1001.0
20260904092548 59 199 0.9 3.5 0.00 0.02 0.01 94 1001.1
20260904092048 59 180 0.0 3.5 0.00 0.02 0.01 94 1001.1
20260904091549 59 302 0.0 3.5 0.00 0.02 0.01 94 1001.2
20260904091047 59 302 0.9 5.2 0.00 0.02 0.01 94 1001.4
20260904090545 59 182 0.9 5.2 0.00 0.02 0.01 94 1001.4
20260904090051 59 311 1.7 6.1 0.00 0.02 0.01 94 1001.6
20260904085543 59 196 1.7 5.2 0.00 0.02 0.01 94 1001.7
20260904085046 59 190 1.7 5.2 0.00 0.02 0.01 94 1001.8
20260904084542 59 170 1.7 5.2 0.00 0.02 0.01 94 1001.8
20260904084042 59 252 0.9 4.3 0.00 0.02 0.01 94 1001.9
20260904083540 59 245 1.7 5.2 0.00 0.02 0.01 94 1001.9
20260904083040 59 185 0.9 5.2 0.00 0.02 0.01 94 1001.9
20260904082539 59 180 0.9 2.6 0.00 0.02 0.01 94 1002.1
20260904082038 59 198 0.9 4.3 0.00 0.02 0.01 94 1002.1
20260904081544 59 244 1.7 5.2 0.00 0.02 0.01 93 1002.0
20260904081036 59 183 1.7 5.2 0.00 0.02 0.01 93 1002.1
20260904080537 59 180 0.9 4.3 0.00 0.02 0.01 94 1002.1
20260904080136 59 153 1.7 4.3 0.00 0.02 0.01 94 1002.2
20260904075535 58 306 0.0 4.3 0.00 0.02 0.01 94 1002.3
20260904075035 58 161 0.0 3.5 0.00 0.02 0.01 94 1002.3
20260904074533 58 174 0.0 2.6 0.00 0.02 0.01 94 1002.4
20260904074032 58 157 0.0 3.5 0.00 0.02 0.01 94 1002.5
20260904073532 58 136 0.0 3.5 0.00 0.02 0.01 94 1002.5
20260904073036 58 242 0.9 3.5 0.00 0.02 0.01 94 1002.5
20260904072531 58 265 0.9 3.5 0.00 0.02 0.01 94 1002.6
20260904072030 58 153 0.9 3.5 0.00 0.02 0.01 94 1002.6
20260904071530 58 173 0.0 2.6 0.00 0.02 0.01 94 1002.6
20260904071032 58 180 0.9 1.7 0.00 0.02 0.01 95 1002.8
20260904070530 57 193 0.0 1.7 0.00 0.02 0.01 95 1002.7
20260904070027 57 193 0.0 4.3 0.00 0.02 0.01 95 1002.8
20260904065529 57 193 0.0 4.3 0.00 0.02 0.01 95 1002.9
20260904065025 57 215 0.0 1.7 0.00 0.02 0.01 95 1002.9
20260904064524 57 215 0.0 1.7 0.00 0.02 0.01 95 1003.1
20260904064024 57 215 0.0 0.9 0.00 0.02 0.01 94 1003.2
20260904063524 57 215 0.0 1.7 0.00 0.02 0.01 94 1003.2
20260904063124 57 215 0.0 1.7 0.00 0.02 0.01 94 1003.3
20260904062522 57 215 0.0 1.7 0.00 0.02 0.01 94 1003.3
20260904062025 57 215 0.0 2.6 0.00 0.02 0.01 94 1003.3
20260904061523 57 215 0.0 2.6 0.00 0.02 0.01 94 1003.5
20260904061021 57 180 0.0 2.6 0.00 0.02 0.01 94 1003.5
20260904060519 56 245 0.0 1.7 0.00 0.02 0.01 94 1003.5
20260904060018 56 211 0.0 0.9 0.00 0.02 0.01 93 1003.7
20260904055517 56 211 0.0 0.9 0.00 0.02 0.01 93 1003.7
20260904055018 56 211 0.0 0.0 0.00 0.02 0.01 93 1003.8
20260904054516 56 211 0.0 0.0 0.00 0.02 0.01 93 1003.9
20260904054015 56 211 0.0 0.9 0.00 0.02 0.01 93 1004.0
20260904053514 56 211 0.0 1.7 0.00 0.02 0.01 92 1003.9
20260904053017 56 211 0.0 1.7 0.00 0.02 0.01 92 1004.0
20260904052512 56 211 0.0 0.9 0.00 0.02 0.01 92 1004.2
20260904052012 56 211 0.0 0.9 0.00 0.02 0.01 92 1004.2
20260904051525 56 211 0.0 0.9 0.00 0.02 0.01 91 1004.3
20260904051010 56 211 0.0 1.7 0.00 0.02 0.01 91 1004.3
20260904050509 56 211 0.0 1.7 0.00 0.02 0.01 91 1004.3
20260904050009 56 211 0.0 1.7 0.00 0.02 0.01 91 1004.3
20260904045509 56 211 0.0 1.7 0.00 0.02 0.01 91 1004.4
20260904045011 56 211 0.0 1.7 0.00 0.02 0.01 91 1004.4
20260904044508 56 211 0.0 2.6 0.00 0.02 0.01 91 1004.5
20260904044007 56 229 0.0 3.5 0.00 0.02 0.01 91 1004.6
20260904043508 56 254 0.9 3.5 0.00 0.02 0.01 91 1004.7
20260904043010 56 263 0.0 2.6 0.00 0.02 0.01 91 1004.8
20260904042510 56 202 0.0 3.5 0.00 0.02 0.01 91 1004.8
20260904042006 56 269 0.0 3.5 0.00 0.02 0.01 91 1004.8
20260904041513 56 161 0.0 2.6 0.00 0.02 0.01 91 1004.7
20260904041005 56 214 0.9 2.6 0.00 0.02 0.01 91 1004.6
20260904040508 56 315 0.0 2.6 0.00 0.02 0.01 91 1004.7
20260904040006 56 294 0.0 2.6 0.00 0.02 0.01 91 1004.8
20260904035504 56 188 0.0 3.5 0.00 0.02 0.01 91 1004.8
20260904035007 56 184 0.0 2.6 0.00 0.02 0.01 90 1004.9
20260904034505 57 331 0.0 2.6 0.00 0.02 0.01 90 1004.8
20260904034007 57 241 0.9 4.3 0.00 0.02 0.01 90 1004.8
20260904033502 57 233 0.9 4.3 0.00 0.02 0.01 90 1005.1
20260904033002 57 187 0.9 4.3 0.00 0.02 0.01 90 1005.1
20260904032502 57 261 0.0 4.3 0.00 0.02 0.01 90 1005.1
20260904032100 57 314 0.9 4.3 0.00 0.02 0.01 90 1005.1
20260904031600 57 304 0.9 6.1 0.00 0.02 0.01 90 1005.2
20260904031100 57 223 1.7 6.1 0.00 0.02 0.01 90 1005.1
20260904030600 57 257 0.9 6.1 0.00 0.02 0.01 90 1005.1
20260904025602 57 159 1.7 7.0 0.00 0.02 0.01 90 1005.1
20260904025059 57 232 1.7 7.0 0.00 0.02 0.01 90 1005.2
20260904024600 57 333 0.9 7.8 0.00 0.02 0.01 90 1005.2
20260904024057 57 290 1.7 7.8 0.00 0.02 0.01 90 1005.3
20260904023557 57 186 0.0 3.5 0.00 0.02 0.01 90 1005.4
20260904023058 57 266 1.7 4.3 0.00 0.02 0.01 90 1005.3
20260904022557 57 232 0.9 4.3 0.00 0.02 0.01 90 1005.3
20260904022055 57 203 0.9 4.3 0.00 0.02 0.01 90 1005.4
20260904021556 57 276 0.9 6.1 0.00 0.02 0.01 90 1005.4
20260904021056 57 188 1.7 7.0 0.00 0.02 0.01 90 1005.5
20260904020555 57 268 1.7 7.0 0.00 0.02 0.01 90 1005.7
20260904020055 57 187 0.0 4.3 0.00 0.02 0.01 90 1005.5
20260904015553 57 298 1.7 4.3 0.00 0.02 0.01 90 1005.5
20260904015053 57 250 0.9 4.3 0.00 0.02 0.01 90 1005.7
20260904014559 57 185 1.7 8.7 0.00 0.02 0.01 90 1005.7
20260904014053 57 270 0.0 8.7 0.00 0.02 0.01 90 1005.9
20260904013551 57 260 0.9 7.8 0.00 0.02 0.01 90 1005.9
20260904013055 57 292 0.9 7.8 0.00 0.02 0.01 90 1005.9
20260904012552 57 274 1.7 7.0 0.00 0.02 0.01 90 1006.0
20260904012051 57 164 1.7 7.0 0.00 0.02 0.01 91 1006.0
20260904011551 58 188 0.9 9.6 0.00 0.02 0.01 91 1006.1
20260904011049 58 240 1.7 9.6 0.00 0.02 0.01 91 1006.1
20260904010548 58 167 1.7 6.1 0.00 0.02 0.01 91 1006.0
20260904010049 58 161 0.9 7.8 0.00 0.02 0.01 91 1006.0
20260904005547 58 290 1.7 7.8 0.00 0.03 0.01 92 1006.0
20260904005047 58 220 1.7 7.8 0.00 0.03 0.01 92 1006.0
20260904004647 58 192 0.9 7.8 0.01 0.03 0.01 92 1006.1
20260904004049 58 286 0.9 7.8 0.01 0.03 0.01 92 1006.0
20260904003550 58 253 2.6 7.0 0.01 0.03 0.01 92 1006.0
20260904003046 58 305 0.9 10.4 0.01 0.03 0.01 92 1006.1
20260904002547 58 263 1.7 4.3 0.01 0.03 0.01 92 1006.0
20260904002045 58 295 1.7 7.8 0.01 0.03 0.01 92 1006.2
20260904001544 58 246 0.9 7.8 0.01 0.03 0.01 92 1006.1
20260904001043 58 219 2.6 7.8 0.01 0.03 0.01 92 1006.1
20260904000543 58 261 1.7 7.8 0.01 0.03 0.01 92 1006.2
20260904000043 58 223 2.6 7.8 0.01 0.03 0.01 92 1006.2
20260903235542 58 192 1.7 4.3 0.01 0.03 0.01 92 1006.2
20260903235042 58 279 0.9 5.2 0.00 0.02 0.00 92 1006.3
20260903234542 58 88 0.9 7.0 0.00 0.02 0.00 92 1006.2
20260903234042 58 288 2.6 7.0 0.00 0.02 0.00 92 1006.3
20260903233541 58 257 1.7 4.3 0.00 0.02 0.00 92 1006.3
20260903233042 58 202 0.9 4.3 0.00 0.02 0.00 92 1006.2
20260903232541 58 129 0.0 3.5 0.00 0.02 0.00 92 1006.1
20260903232041 58 191 0.9 7.0 0.00 0.02 0.00 92 1006.2
20260903231557 58 263 0.9 7.0 0.00 0.02 0.00 92 1006.2
20260903231040 58 351 0.9 5.2 0.00 0.02 0.00 92 1006.4
20260903230540 58 191 0.9 5.2 0.00 0.02 0.00 92 1006.4
20260903230041 58 302 0.9 6.1 0.00 0.02 0.00 92 1006.3
20260903225540 58 272 1.7 3.5 0.00 0.02 0.00 92 1006.3
20260903225039 58 246 0.9 6.1 0.00 0.02 0.00 92 1006.4
20260903224539 58 136 0.9 6.1 0.00 0.02 0.00 92 1006.2
20260903224042 58 233 0.9 4.3 0.00 0.02 0.00 92 1006.3
20260903223539 58 220 1.7 7.0 0.00 0.02 0.00 92 1006.3
20260903223044 58 232 2.6 7.0 0.00 0.02 0.00 93 1006.2
20260903222537 58 319 0.9 5.2 0.00 0.02 0.00 92 1006.3
20260903222037 58 194 0.9 7.0 0.00 0.02 0.00 92 1006.5
20260903221539 58 302 1.7 7.0 0.00 0.02 0.00 92 1006.5
20260903221036 58 290 1.7 5.2 0.00 0.02 0.00 92 1006.5
20260903220537 58 285 0.9 4.3 0.00 0.02 0.00 92 1006.4
20260903220056 58 192 1.7 7.8 0.00 0.02 0.00 92 1006.6
20260903215537 58 263 2.6 7.8 0.00 0.02 0.02 92 1006.6
20260903215033 58 245 1.7 7.8 0.00 0.02 0.02 92 1006.6
20260903214534 58 317 0.9 7.8 0.00 0.02 0.02 92 1006.5
20260903214033 58 336 0.9 4.3 0.00 0.02 0.02 92 1006.5
20260903213532 58 149 1.7 6.1 0.00 0.02 0.02 92 1006.4
20260903213033 58 270 1.7 6.1 0.00 0.02 0.02 92 1006.5
20260903212533 58 323 1.7 9.6 0.00 0.02 0.02 92 1006.4
20260903212034 58 195 0.9 9.6 0.00 0.02 0.02 92 1006.4
20260903211532 58 221 1.7 8.7 0.00 0.02 0.02 92 1006.4
20260903211031 59 185 1.7 8.7 0.00 0.02 0.02 92 1006.3
20260903210536 59 229 1.7 8.7 0.01 0.02 0.02 92 1006.4
20260903210035 59 213 2.6 7.8 0.01 0.02 0.02 92 1006.5
20260903205531 59 204 1.7 6.1 0.01 0.02 0.02 92 1006.4
20260903205031 59 234 0.9 6.1 0.01 0.02 0.02 92 1006.4
20260903204531 59 286 1.7 7.0 0.01 0.02 0.02 92 1006.4
20260903204032 59 267 2.6 7.0 0.01 0.02 0.02 92 1006.4
20260903203533 59 186 1.7 8.7 0.01 0.02 0.02 92 1006.4
20260903203030 59 229 1.7 8.7 0.01 0.02 0.02 92 1006.3
20260903202534 59 196 2.6 9.6 0.01 0.02 0.02 92 1006.3
20260903202032 59 169 1.7 8.7 0.01 0.02 0.02 93 1006.2
20260903201529 59 345 1.7 10.4 0.01 0.02 0.02 93 1006.3
20260903201028 59 288 1.7 10.4 0.01 0.02 0.02 93 1006.3
20260903200528 59 327 2.6 7.0 0.00 0.02 0.02 93 1006.3
20260903200041 59 298 1.7 7.0 0.00 0.02 0.02 93 1006.3